Flag for Poland Weather past 2 weeks in Rzeszów, Poland

Now
57 °F

Clear.


Feels Like: 57 °F
Forecast: 64 / 95 °F
Wind: No wind

Location: Rzeszow-Jasionka

Current Time: Jul 5, 2015 at 5:17:32 AM

Latest Report: Jul 5, 2015 at 4:30 AM


Visibility: 10 mi

Pressure: 30.12 "Hg

Humidity: 88%

Dew point: 54 °F

Location of RzeszówLocation

Historic Weather in Rzeszów — Graph

°F

Rzeszów temperature yesterday

Maximum temperature yesterday: 86 °F (at 3:00 PM)
Minimum temperature yesterday: 54 °F (at 3:30 AM)
Average temperature yesterday: 72 °F

Past Weeks' High & Low Weather Summary

 TemperatureHumidityPressure
High86 °F (Jul 4, 3:00 PM)100% (Jun 20, 4:00 AM)30.42 "Hg (Jun 20, 4:00 AM)
Low45 °F (Jun 21, 2:30 AM)27% (Jul 4, 3:30 PM)29.77 "Hg (Jun 23, 10:00 AM)
Average63 °F67%30.10 "Hg
* Reported Jun 20 4:00 AM — Jul 5 4:00 AM, Rzeszów, Weather by CustomWeather, © 2015

Note: Actual official high and low records may vary slightly from our data, if they occured in-between our weather recording intervals... More about our weather records

Advertising

Rzeszów weather history for previous 24 hours

 ConditionsComfort  
Time TempWeatherWind HumidityBarometerVisibility
4:00 AM
Sun, Jul 5
57 °FClear.1 mph88%30.15 "Hg10 mi
3:30 AM59 °FClear.1 mph82%30.15 "Hg10 mi
3:00 AM59 °FClear.No wind82%30.15 "Hg10 mi
2:30 AM59 °FClear.No wind88%30.15 "Hg10 mi
2:00 AM63 °FClear.No wind77%30.15 "Hg10 mi
1:30 AM63 °FClear.1 mph77%30.15 "Hg10 mi
1:00 AM64 °FClear.1 mph73%30.15 "Hg10 mi
12:30 AM63 °FClear.No wind77%30.15 "Hg10 mi
12:00 AM64 °FClear.1 mph73%30.15 "Hg10 mi
11:30 PM
Sat, Jul 4
64 °FClear.3 mph73%30.15 "Hg10 mi
11:00 PM66 °FClear.2 mph68%30.15 "Hg10 mi
10:30 PM72 °FClear.No wind57%30.15 "Hg10 mi
10:00 PM72 °FClear.No wind57%30.15 "Hg10 mi
9:30 PM73 °FSunny.No wind50%30.15 "Hg10 mi
9:00 PM77 °FSunny.2 mph44%30.15 "Hg10 mi
8:30 PM79 °FSunny.5 mph42%30.15 "Hg10 mi
8:00 PM81 °FSunny.5 mph37%30.15 "Hg10 mi
7:30 PM82 °FSunny.5 mph32%30.18 "Hg10 mi
7:00 PM82 °FSunny.6 mph30%30.18 "Hg10 mi
6:30 PM84 °FSunny.8 mph31%30.18 "Hg10 mi
6:00 PM84 °FPassing clouds.6 mph29%30.18 "HgN/A
5:30 PM86 °FPassing clouds.8 mph29%30.18 "HgN/A
5:00 PM86 °FSunny.5 mph29%30.18 "Hg10 mi
4:30 PM86 °FPassing clouds.6 mph29%30.21 "HgN/A
4:00 PM86 °FPassing clouds.6 mph29%30.21 "HgN/A
3:30 PM86 °FPassing clouds.6 mph27%30.21 "HgN/A
3:00 PM86 °FPassing clouds.7 mph29%30.21 "HgN/A
2:30 PM84 °FPassing clouds.6 mph31%30.24 "HgN/A
2:00 PM84 °FSunny.7 mph31%30.24 "Hg10 mi
1:30 PM84 °FPassing clouds.7 mph33%30.24 "HgN/A
1:00 PM82 °FPassing clouds.6 mph35%30.24 "HgN/A
12:30 PM82 °FPassing clouds.6 mph32%30.27 "HgN/A
12:00 PM82 °FPassing clouds.10 mph35%30.27 "HgN/A
11:30 AM81 °FPassing clouds.7 mph37%30.27 "HgN/A
11:00 AM79 °FPassing clouds.8 mph42%30.27 "HgN/A
10:30 AM79 °FSunny.10 mph42%30.30 "Hg10 mi
10:00 AM79 °FSunny.10 mph42%30.30 "Hg10 mi
9:30 AM77 °FPassing clouds.7 mph44%30.30 "HgN/A
9:00 AM73 °FSunny.6 mph53%30.30 "Hg10 mi
8:30 AM72 °FPassing clouds.3 mph61%30.30 "HgN/A
8:00 AM68 °FPassing clouds.3 mph64%30.30 "HgN/A
7:30 AM64 °FSunny.2 mph73%30.33 "Hg10 mi
7:00 AM61 °FSunny.2 mph77%30.33 "Hg10 mi
6:30 AM59 °FSunny.2 mph82%30.33 "Hg10 mi
6:00 AM57 °FSunny.1 mph88%30.33 "Hg10 mi
5:30 AM57 °FSunny.2 mph82%30.33 "Hg10 mi
5:00 AM55 °FClear.1 mph82%30.33 "Hg10 mi
Weather by CustomWeather, © 2015

See weather overviewHow to use our weather pages